Weather Roundup
Issued by NWS Chicago, IL

Home | Current Version | Previous Version | Text Only | Print | Product List | Glossary Off
Versions: 1 2 3 4 5 6 7 8 9 10 11 12 13 14 15 16 17 18 19 20 21 22 23 24 25 26 27 28 29 30 31 32 33 34 35 36 37 38 39 40 41 42 43 44 45 46 47 48 49 50

000
NZUS59 KLOT 120358
HRRLOT

CHICAGO AREA WEATHER ROUNDUP
NATIONAL WEATHER SERVICE CHICAGO/ROMEOVILLE IL
1100 PM CDT FRI JUL 11 2014

NOTE: "FAIR" INDICATES FEW OR NO CLOUDS BELOW 12,000 FEET WITH NO
SIGNIFICANT WEATHER AND/OR OBSTRUCTIONS TO VISIBILITY.

* THESE STATIONS ARE NOT UNDER NWS QUALITY CONTROL. THEY ALSO MAY NOT
  REPORT WEATHER SUCH AS PRECIPITATION OR FOG.

ILZ005-006-012>014-019>023-120500-
NORTHEAST ILLINOIS

CITY           SKY/WX    TMP DP  RH WIND       PRES   REMARKS
OHARE          CLOUDY    73  58  59 S6        30.13S
MIDWAY         CLOUDY    78  59  51 S6        30.13S
AURORA         CLOUDY    72  61  68 E5        30.13S
WAUKEGAN       CLOUDY    70  60  70 S5        30.12S
DUPAGE AIRPORT CLOUDY    73  59  61 S7        30.13S
WHEELING       CLOUDY    73  62  68 SE3       30.14S
NORTHERLY IS     N/A     73  60  63 S3          N/A
$$

WIZ051-052-058>065-066-070>072-120500-
SOUTHEAST WISCONSIN

CITY           SKY/WX    TMP DP  RH WIND       PRES   REMARKS
MILWAUKEE      PTCLDY    67  57  70 S7        30.12S
KENOSHA*       MOCLDY    68  60  75 S3        30.13S
RACINE*        PTCLDY    67  60  78 S5        30.14S
$$

INZ001>003-010>013-019-020-120500-
NORTHWEST INDIANA

CITY           SKY/WX    TMP DP  RH WIND       PRES   REMARKS
GARY*          NOT AVBL
MICHIGAN CITY* NOT AVBL
RENSSELAER*    NOT AVBL
VALPARAISO     CLOUDY    68  63  84 CALM      30.16S
$$

LMZ740>746-120500-
SOUTHERN LAKE MICHIGAN

STATION/POSITION TIME  SKY/WX   TEMP WIND        PRES    VSBY
                                AIR  DIR/SP/G
                 (UTC)          (F)  (DEG/KT/KT) (MB)    (MI)
HARRISON CRIB    0300            75  170/  9/ 10   N/A
BURNHAM HARBOR   0300            71  160/  4/  4   N/A
CALUMET HARBOR   0300            76  140/  3/  5 1021.1
BURNS HARBOR     NOT AVBL
MICHIGAN CITY    0300            74  130/  6/  8   N/A
$$

ABBREVIATIONS USED IN REMARKS
   TC - TEMPERATURE IN CELSIUS
  WCI - WIND CHILL INDEX
   HX - HEAT INDEX
  VSB - VISIBILITY
$$



USA.gov is the U.S. government's official web portal to all federal, state and local government web resources and services.